Weather History for KOXC - February, 2013

Change the Weather History Date:

Tuesday, February 19, 2013

  Actual Average Record
Temperature  
Mean Temperature 34 °F -  
Max Temperature 42 °F 36 °F 59 °F (1997)
Min Temperature 26 °F 21 °F 3 °F (2015)
Degree Days  
Heating Degree Days 31    
Moisture  
Dew Point 31 °F    
Average Humidity 76    
Maximum Humidity 87    
Minimum Humidity 55    
Precipitation  
Precipitation 0.03 in - - ()
Sea Level Pressure  
Sea Level Pressure 29.81 in    
Wind  
Wind Speed 8 mph (SW)    
Max Wind Speed 16 mph    
Max Gust Speed 24 mph    
Visibility 7 miles    
Events Rain    
Averages and records for this station are not official NWS values.
T = Trace of Precipitation, MM = Missing Value Source: NWS Daily Summary

Daily Weather History Graph

Daily Weather History Graph

Search for Another Location

Airport or City:

Trip Planner

Search our weather history database for the weather conditions in past years. The results will help you decide how hot, cold, wet, or windy it might be!

Date:

Astronomy

Feb. 19, 2013 Rise Set
Actual Time 6:41 AM EST 5:31 PM EST
Civil Twilight 6:13 AM EST 5:59 PM EST
Nautical Twilight 5:41 AM EST 6:31 PM EST
Astronomical Twilight 5:09 AM EST 7:04 PM EST
Moon 11:58 AM EST (2/19) 2:13 AM EST (2/19)
Length of Visible Light 11h 46m
Length of Day
10h 49m
Waxing Gibbous, 67% of the Moon is Illuminated
Feb 19
Waxing Gibbous
Feb 25
Full
Mar 4
Last Quarter
Mar 11
New
Mar 19
First Quarter

Hourly Weather History & Observations

Time (EST) Temp. Windchill Dew Point Humidity Pressure Visibility Wind Dir Wind Speed Gust Speed Precip Events Conditions
5:45 AM 26.6 °F 20.0 °F 12.2 °F 55% 30.08 in 10.0 mi SW 5.8 mph - N/A   Clear
6:45 AM 26.6 °F 21.2 °F 12.2 °F 55% 30.06 in 10.0 mi South 4.6 mph - N/A   Clear
7:45 AM 28.4 °F 22.2 °F 15.8 °F 59% 30.05 in 10.0 mi SE 5.8 mph - N/A   Clear
8:45 AM 33.8 °F 27.0 °F 21.2 °F 60% 30.04 in 10.0 mi SSW 8.1 mph - N/A   Clear
9:45 AM 37.4 °F 30.8 °F 24.8 °F 60% 30.03 in 10.0 mi South 9.2 mph - N/A   Clear
10:45 AM 37.4 °F 29.8 °F 26.6 °F 65% 30.00 in 10.0 mi South 11.5 mph 16.1 mph N/A   Clear
11:45 AM 39.2 °F 32.5 °F 28.4 °F 65% 29.97 in 10.0 mi South 10.4 mph 16.1 mph N/A   Clear
12:45 PM 42.8 °F 35.1 °F 30.2 °F 61% 29.92 in 10.0 mi SSW 16.1 mph 23.0 mph N/A   Clear
1:45 PM 42.8 °F 36.6 °F 32.0 °F 66% 29.89 in 8.0 mi SSW 11.5 mph 23.0 mph N/A Rain Light Rain
2:15 PM 41.0 °F 32.8 °F 33.8 °F 76% 29.87 in 4.0 mi South 16.1 mph 24.2 mph N/A Rain Light Rain
2:45 PM 39.2 °F 33.0 °F 33.8 °F 81% 29.85 in 4.0 mi SSW 9.2 mph 18.4 mph N/A Rain Light Rain
3:45 PM 39.2 °F 33.0 °F 33.8 °F 81% 29.82 in 6.0 mi South 9.2 mph 16.1 mph N/A Rain Light Rain
4:45 PM 39.2 °F 33.0 °F 35.6 °F 87% 29.75 in 1.0 mi SSE 9.2 mph - N/A Rain Light Rain
5:45 PM 41.0 °F 35.8 °F 37.4 °F 87% 29.72 in 2.0 mi SSW 8.1 mph - N/A Rain Light Rain
7:45 PM 41.0 °F 39.0 °F 37.4 °F 87% 29.67 in 1.0 mi West 3.5 mph - N/A Rain Light Rain
8:45 PM 41.0 °F 39.0 °F 37.4 °F 87% 29.65 in 2.0 mi West 3.5 mph - N/A   Overcast
8:55 PM 41.0 °F 37.1 °F 37.4 °F 87% 29.66 in 4.0 mi West 5.8 mph - N/A   Overcast
9:15 PM 41.0 °F 35.8 °F 37.4 °F 87% 29.66 in 3.0 mi WSW 8.1 mph - 0.01 in   Overcast
9:35 PM 39.2 °F 33.0 °F 35.6 °F 87% 29.65 in 6.0 mi West 9.2 mph 18.4 mph 0.02 in   Overcast
9:55 PM 39.2 °F 35.0 °F 35.6 °F 87% 29.64 in 10.0 mi West 5.8 mph 19.6 mph 0.03 in   Mostly Cloudy
10:15 PM 39.2 °F 34.2 °F 35.6 °F 87% 29.64 in 10.0 mi West 6.9 mph - N/A   Overcast
10:55 PM 37.4 °F 32.1 °F 33.8 °F 87% 29.63 in 10.0 mi West 6.9 mph - N/A   Overcast
11:15 PM 37.4 °F 30.8 °F 33.8 °F 87% 29.63 in 10.0 mi West 9.2 mph 17.3 mph N/A   Overcast
11:35 PM 37.4 °F 31.4 °F 32.0 °F 81% 29.63 in 10.0 mi West 8.1 mph 18.4 mph N/A   Overcast
11:55 PM 37.4 °F 30.3 °F 30.2 °F 75% 29.63 in 10.0 mi West 10.4 mph 23.0 mph N/A   Overcast